TimeMDT,TemperatureF,Dew PointF,Humidity,Sea Level PressureIn,VisibilityMPH,Wind Direction,Wind SpeedMPH,Gust SpeedMPH,PrecipitationIn,Events,Conditions,WindDirDegrees,DateUTC
12:53 AM,34.0,30.0,85,30.18,10.0,South,9.2,-,N/A,,Clear,170,2013-03-28 06:53:00
1:53 AM,34.0,28.9,82,30.16,10.0,South,10.4,-,N/A,,Scattered Clouds,170,2013-03-28 07:53:00
2:53 AM,34.0,28.9,82,30.15,10.0,South,5.8,-,N/A,,Mostly Cloudy,170,2013-03-28 08:53:00
3:53 AM,37.9,30.0,73,30.13,10.0,SSW,8.1,-,N/A,,Overcast,210,2013-03-28 09:53:00
4:53 AM,37.9,28.9,70,30.12,10.0,SSW,10.4,-,N/A,,Mostly Cloudy,200,2013-03-28 10:53:00
5:53 AM,37.0,28.9,73,30.12,10.0,SSW,8.1,-,N/A,,Clear,200,2013-03-28 11:53:00
6:53 AM,28.0,25.0,88,30.16,10.0,South,3.5,-,N/A,,Clear,170,2013-03-28 12:53:00
7:53 AM,32.0,28.0,85,30.17,10.0,South,5.8,-,N/A,,Clear,180,2013-03-28 13:53:00
8:53 AM,42.1,30.0,62,30.17,10.0,South,6.9,-,N/A,,Clear,190,2013-03-28 14:53:00
9:53 AM,43.0,30.0,60,30.17,10.0,South,9.2,-,N/A,,Clear,190,2013-03-28 15:53:00
10:53 AM,46.0,34.0,63,30.16,10.0,South,9.2,-,N/A,,Clear,170,2013-03-28 16:53:00
11:53 AM,48.9,34.0,56,30.17,10.0,SSE,8.1,-,N/A,,Clear,150,2013-03-28 17:53:00
12:53 PM,53.1,36.0,52,30.14,10.0,South,11.5,-,N/A,,Clear,170,2013-03-28 18:53:00
1:53 PM,57.0,34.0,42,30.09,10.0,South,10.4,-,N/A,,Clear,180,2013-03-28 19:53:00
2:53 PM,59.0,34.0,39,30.07,10.0,South,6.9,-,N/A,,Clear,180,2013-03-28 20:53:00
3:53 PM,60.1,34.0,38,30.04,10.0,South,5.8,-,N/A,,Clear,180,2013-03-28 21:53:00
4:53 PM,61.0,34.0,36,30.03,10.0,South,12.7,-,N/A,,Clear,190,2013-03-28 22:53:00
5:53 PM,60.1,36.0,41,30.04,10.0,South,8.1,-,N/A,,Clear,170,2013-03-28 23:53:00
6:53 PM,52.0,39.0,61,30.10,10.0,SSE,9.2,-,N/A,,Clear,160,2013-03-29 00:53:00
7:53 PM,46.0,36.0,68,30.11,10.0,South,10.4,-,N/A,,Clear,180,2013-03-29 01:53:00
8:53 PM,44.1,35.1,71,30.11,10.0,South,11.5,-,N/A,,Clear,180,2013-03-29 02:53:00
9:53 PM,37.9,33.1,83,30.14,10.0,SSE,9.2,-,N/A,,Clear,160,2013-03-29 03:53:00
10:53 PM,39.9,33.1,77,30.13,10.0,South,12.7,-,N/A,,Clear,180,2013-03-29 04:53:00
11:53 PM,42.1,33.1,70,30.12,10.0,South,12.7,-,N/A,,Clear,180,2013-03-29 05:53:00